West Navigator — 3ERR2 — position and weather

sailwx.info

Track history (hours):
 
Tides and Currents Weather Stations Pressure Air Temp Water Temp Dewpoint Dewpoint Depression Visibility Wind Speed Wind Dir Waves Ship Positions

West Navigator

Last reported at 2014-Oct-30 09:00 UTC. Time now 2014-Oct-30 12:22 UTC.
Position N 67°18' E 007°24'.

Length 253 m; draft 15 m.

MMSI: 370144000.

Wind from 280 at 17 knots

Waves 3.0 meters (10 feet), 8 second period

Barometer 1008.7 mb
Air temperature 7.4 ° C
Dewpoint 3.7 ° C

Date/timePositionNaut miles runAvg speedWind from/ knotsBaromVisibWave heightAir tempDewpointWater temp
2014-Oct-30 09:00N 67°18' E 007°24'0 0.0 280 / 171008.7 3.0 7.4 3.7
2014-Oct-30 06:00N 67°18' E 007°24'0 0.0 280 / 161006.2 3.0 7.0 3.7
2014-Oct-30 00:00N 67°18' E 007°24'0 0.0 310 / 201000.4 3.0 7.2 4.7
2014-Oct-29 21:00N 67°18' E 007°24'0 0.0 310 / 22997.7 3.5 7.0 4.3
2014-Oct-29 18:00N 67°18' E 007°24'0 0.0 250 / 20995.9 3.5 6.5 3.6
2014-Oct-29 12:00N 67°18' E 007°24'0 0.0 280 / 22994.0 2.5 6.1 2.8
2014-Oct-29 09:00N 67°18' E 007°24'0 0.0 280 / 23992.0 2.5 5.7 2.9
2014-Oct-29 06:00N 67°18' E 007°24'0 0.0 270 / 20990.7 2.5 6.4 3.2
2014-Oct-29 03:00N 67°18' E 007°24'0 0.0 300 / 15990.0 2.0 6.7 3.0
2014-Oct-29 00:00N 67°18' E 007°24'0 0.0 240 / 19989.5 2.0 5.9 3.5
2014-Oct-28 21:00N 67°18' E 007°24'0 0.0 270 / 18989.1 2.0 6.8 1.4
2014-Oct-28 18:00N 67°18' E 007°24'0 0.0 290 / 14989.0 2.0 6.5-0.1
2014-Oct-28 15:00N 67°18' E 007°24'0 0.0 290 / 10988.7 2.5 6.7 1.6
2014-Oct-28 12:00N 67°18' E 007°24'0 0.0 310 / 6988.9 2.5 9.4 3.1
2014-Oct-28 09:00N 67°18' E 007°24'0 0.0 280 / 9989.5 2.5 7.2 3.3
2014-Oct-28 06:00N 67°18' E 007°24'0 0.0 240 / 11989.4 3.0 6.8 3.8
2014-Oct-28 03:00N 67°18' E 007°24'0 0.0 210 / 10989.9 3.5 6.7 3.6
2014-Oct-28 00:00N 67°18' E 007°24'0 0.0 220 / 13990.7 3.0 7.3 3.3
2014-Oct-27 18:00N 67°18' E 007°24'0 0.0 250 / 21991.0 4.5 6.7 3.9
2014-Oct-27 12:00N 67°18' E 007°24'0 0.0 260 / 27990.6 5.5 7.5 1.6
2014-Oct-27 09:00N 67°18' E 007°24'0 0.0 260 / 30987.5 5.5 7.3 2.3
2014-Oct-27 06:00N 67°18' E 007°24'0 0.0 260 / 32983.0 5.0 7.3 3.9
2014-Oct-27 03:00N 67°18' E 007°24'0 0.0 270 / 31978.6 5.0 7.3 2.7
2014-Oct-27 00:00N 67°18' E 007°24'0 0.0 270 / 26972.4 6.0 7.1 5.7
2014-Oct-26 21:00N 67°18' E 007°24'0 0.0 170 / 20974.6 5.5 8.1 6.9
2014-Oct-26 18:10N 67°18' E 007°24'0 0.0 220 / 12978.6 5.0 6.3 4.6
2014-Oct-26 15:00N 67°18' E 007°24'0 0.0 250 / 26978.2 4.5 7.1 3.6
2014-Oct-26 12:00N 67°18' E 007°24'0 0.0 230 / 24975.9 5.5 5.8 3.9
2014-Oct-26 09:00N 67°18' E 007°24'0 0.0 150 / 27975.9 5.0 8.1 5.7
2014-Oct-26 06:00N 67°18' E 007°24'0 0.0 170 / 17981.1 5.0 8.9 6.3
2014-Oct-26 03:00N 67°18' E 007°24'0 0.0 180 / 24983.1 4.5 8.4 6.1
2014-Oct-26 00:00N 67°18' E 007°24'0 0.0 150 / 24985.5 4.5 9.5 8.0
2014-Oct-25 21:00N 67°18' E 007°24'0 0.0 190 / 35987.9 4.0 8.4 7.7
2014-Oct-25 18:00N 67°18' E 007°24'0 0.0 170 / 18990.7 3.5 9.7 7.8
2014-Oct-25 12:00N 67°18' E 007°24'0 0.0 170 / 15993.3 3.5 8.3 6.4
2014-Oct-25 09:00N 67°18' E 007°24'0 0.0 200 / 23993.8 3.5 9.5 7.8
2014-Oct-25 06:00N 67°18' E 007°24'0 0.0 170 / 18994.3 3.5 9.4 7.4
2014-Oct-25 00:00N 67°18' E 007°24'0 0.0 180 / 19996.2 4.0 9.8 6.6
2014-Oct-24 21:00N 67°18' E 007°24'0 0.0 200 / 21996.6 4.0 8.7 6.6
2014-Oct-24 18:00N 67°18' E 007°24'0 0.0 200 / 23996.5 4.5 9.9 6.2
2014-Oct-24 15:00N 67°18' E 007°24'0 0.0 210 / 27995.5 4.5 9.6 6.2
2014-Oct-24 09:00N 67°18' E 007°24'0 0.0 220 / 27991.0 4.510.2 8.4
2014-Oct-24 06:00N 67°18' E 007°24'0 0.0 160 / 22991.4 4.0 9.1 8.9
2014-Oct-24 03:00N 67°18' E 007°24'0 0.0 160 / 21994.2 3.5 9.5 8.8
2014-Oct-24 00:00N 67°18' E 007°24'0 0.0 190 / 20996.3 3.5 9.8 8.6
2014-Oct-23 21:00N 67°18' E 007°24'0 0.0 200 / 25996.4 4.010.0 8.2
2014-Oct-23 18:10N 67°18' E 007°24'0 0.0 210 / 24995.8 4.5 9.7 7.8
2014-Oct-23 15:00N 67°18' E 007°24'0 0.0 200 / 24994.3 5.0 9.8 8.5
2014-Oct-23 12:00N 67°18' E 007°24'0 0.0 180 / 18993.7 5.5 9.1 9.1
2014-Oct-23 09:00N 67°18' E 007°24'0 0.0 170 / 34994.2 5.5 8.5 8.5
2014-Oct-23 06:00N 67°18' E 007°24'0 0.0 160 / 35996.3 4.5 7.9 6.2
2014-Oct-23 03:00N 67°18' E 007°24'0 0.0 140 / 23999.1 3.0 8.0 6.5
2014-Oct-23 00:00N 67°18' E 007°24'0 0.0 170 / 171002.6 3.0 7.7 5.8
2014-Oct-22 21:00N 67°18' E 007°24'0 0.0 150 / 171004.7 3.0 6.8 3.6
2014-Oct-22 18:00N 67°18' E 007°24'0 0.0 180 / 121005.4 4.0 7.0 1.3
2014-Oct-22 15:00N 67°18' E 007°24'0 0.0 260 / 251003.7 4.0 5.7 3.0
2014-Oct-22 12:00N 67°18' E 007°24'0 0.0 290 / 33996.9 5.5 7.0 6.4
2014-Oct-22 09:00N 67°18' E 007°24'0 0.0 160 / 32998.4 5.0 7.7 6.6
2014-Oct-22 06:00N 67°18' E 007°24'0 0.0 160 / 36998.8 5.5 7.2 5.3
2014-Oct-22 03:00N 67°18' E 007°24'0 0.0 150 / 35999.3 5.5 7.5 4.8
2014-Oct-22 00:00N 67°18' E 007°24'0 0.0 160 / 34998.9 5.5 7.9 3.9
2014-Oct-21 21:00N 67°18' E 007°24'0 0.0 150 / 31998.0 5.0 8.3 4.5
2014-Oct-21 18:00N 67°18' E 007°24'0 0.0 150 / 31997.2 5.0 8.4 4.3
2014-Oct-21 15:00N 67°18' E 007°24'0 0.0 150 / 26996.4 4.0 8.6 4.7
2014-Oct-21 12:00N 67°18' E 007°24'0 0.0 140 / 23996.5 3.5 8.5 5.8
2014-Oct-21 09:00N 67°18' E 007°24'0 0.0 150 / 22995.7 3.0 8.9 7.7
2014-Oct-21 06:00N 67°18' E 007°24'0 0.0 170 / 21994.7 2.5 9.6 7.7
2014-Oct-21 03:00N 67°18' E 007°24'0 0.0 190 / 18994.2 2.5 9.0 7.0
2014-Oct-21 00:00N 67°18' E 007°24'0 0.0 210 / 16993.8 2.5 9.5 7.3
2014-Oct-20 18:00N 67°18' E 007°24'0 0.0 150 / 19993.3 3.0 8.2 7.6
2014-Oct-20 12:00N 67°18' E 007°24'0 0.0 150 / 20993.3 2.5 8.8 5.6
2014-Oct-20 09:00N 67°18' E 007°24'   190 / 17993.1 2.5 9.1 7.0
Track history (hours):
 
Tides and Currents Weather Stations Pressure Air Temp Water Temp Dewpoint Dewpoint Depression Visibility Wind Speed Wind Dir Waves Ship Positions

West Navigator

Last reported at 2014-Oct-30 09:00 UTC. Time now 2014-Oct-30 12:22 UTC.
Position N 67°18' E 007°24'.

Length 253 m; draft 15 m.

MMSI: 370144000.

Wind from 280 at 17 knots

Waves 3.0 meters (10 feet), 8 second period

Barometer 1008.7 mb
Air temperature 7.4 ° C
Dewpoint 3.7 ° C

Date/timePositionNaut miles runAvg speedWind from/ knotsBaromVisibWave heightAir tempDewpointWater temp
2014-Oct-30 09:00N 67°18' E 007°24'0 0.0 280 / 171008.7 3.0 7.4 3.7
2014-Oct-30 06:00N 67°18' E 007°24'0 0.0 280 / 161006.2 3.0 7.0 3.7
2014-Oct-30 00:00N 67°18' E 007°24'0 0.0 310 / 201000.4 3.0 7.2 4.7
2014-Oct-29 21:00N 67°18' E 007°24'0 0.0 310 / 22997.7 3.5 7.0 4.3
2014-Oct-29 18:00N 67°18' E 007°24'0 0.0 250 / 20995.9 3.5 6.5 3.6
2014-Oct-29 12:00N 67°18' E 007°24'0 0.0 280 / 22994.0 2.5 6.1 2.8
2014-Oct-29 09:00N 67°18' E 007°24'0 0.0 280 / 23992.0 2.5 5.7 2.9
2014-Oct-29 06:00N 67°18' E 007°24'0 0.0 270 / 20990.7 2.5 6.4 3.2
2014-Oct-29 03:00N 67°18' E 007°24'0 0.0 300 / 15990.0 2.0 6.7 3.0
2014-Oct-29 00:00N 67°18' E 007°24'0 0.0 240 / 19989.5 2.0 5.9 3.5
2014-Oct-28 21:00N 67°18' E 007°24'0 0.0 270 / 18989.1 2.0 6.8 1.4
2014-Oct-28 18:00N 67°18' E 007°24'0 0.0 290 / 14989.0 2.0 6.5-0.1
2014-Oct-28 15:00N 67°18' E 007°24'0 0.0 290 / 10988.7 2.5 6.7 1.6
2014-Oct-28 12:00N 67°18' E 007°24'0 0.0 310 / 6988.9 2.5 9.4 3.1
2014-Oct-28 09:00N 67°18' E 007°24'0 0.0 280 / 9989.5 2.5 7.2 3.3
2014-Oct-28 06:00N 67°18' E 007°24'0 0.0 240 / 11989.4 3.0 6.8 3.8
2014-Oct-28 03:00N 67°18' E 007°24'0 0.0 210 / 10989.9 3.5 6.7 3.6
2014-Oct-28 00:00N 67°18' E 007°24'0 0.0 220 / 13990.7 3.0 7.3 3.3
2014-Oct-27 18:00N 67°18' E 007°24'0 0.0 250 / 21991.0 4.5 6.7 3.9
2014-Oct-27 12:00N 67°18' E 007°24'0 0.0 260 / 27990.6 5.5 7.5 1.6
2014-Oct-27 09:00N 67°18' E 007°24'0 0.0 260 / 30987.5 5.5 7.3 2.3
2014-Oct-27 06:00N 67°18' E 007°24'0 0.0 260 / 32983.0 5.0 7.3 3.9
2014-Oct-27 03:00N 67°18' E 007°24'0 0.0 270 / 31978.6 5.0 7.3 2.7
2014-Oct-27 00:00N 67°18' E 007°24'0 0.0 270 / 26972.4 6.0 7.1 5.7
2014-Oct-26 21:00N 67°18' E 007°24'0 0.0 170 / 20974.6 5.5 8.1 6.9
2014-Oct-26 18:10N 67°18' E 007°24'0 0.0 220 / 12978.6 5.0 6.3 4.6
2014-Oct-26 15:00N 67°18' E 007°24'0 0.0 250 / 26978.2 4.5 7.1 3.6
2014-Oct-26 12:00N 67°18' E 007°24'0 0.0 230 / 24975.9 5.5 5.8 3.9
2014-Oct-26 09:00N 67°18' E 007°24'0 0.0 150 / 27975.9 5.0 8.1 5.7
2014-Oct-26 06:00N 67°18' E 007°24'0 0.0 170 / 17981.1 5.0 8.9 6.3
2014-Oct-26 03:00N 67°18' E 007°24'0 0.0 180 / 24983.1 4.5 8.4 6.1
2014-Oct-26 00:00N 67°18' E 007°24'0 0.0 150 / 24985.5 4.5 9.5 8.0
2014-Oct-25 21:00N 67°18' E 007°24'0 0.0 190 / 35987.9 4.0 8.4 7.7
2014-Oct-25 18:00N 67°18' E 007°24'0 0.0 170 / 18990.7 3.5 9.7 7.8
2014-Oct-25 12:00N 67°18' E 007°24'0 0.0 170 / 15993.3 3.5 8.3 6.4
2014-Oct-25 09:00N 67°18' E 007°24'0 0.0 200 / 23993.8 3.5 9.5 7.8
2014-Oct-25 06:00N 67°18' E 007°24'0 0.0 170 / 18994.3 3.5 9.4 7.4
2014-Oct-25 00:00N 67°18' E 007°24'0 0.0 180 / 19996.2 4.0 9.8 6.6
2014-Oct-24 21:00N 67°18' E 007°24'0 0.0 200 / 21996.6 4.0 8.7 6.6
2014-Oct-24 18:00N 67°18' E 007°24'0 0.0 200 / 23996.5 4.5 9.9 6.2
2014-Oct-24 15:00N 67°18' E 007°24'0 0.0 210 / 27995.5 4.5 9.6 6.2
2014-Oct-24 09:00N 67°18' E 007°24'0 0.0 220 / 27991.0 4.510.2 8.4
2014-Oct-24 06:00N 67°18' E 007°24'0 0.0 160 / 22991.4 4.0 9.1 8.9
2014-Oct-24 03:00N 67°18' E 007°24'0 0.0 160 / 21994.2 3.5 9.5 8.8
2014-Oct-24 00:00N 67°18' E 007°24'0 0.0 190 / 20996.3 3.5 9.8 8.6
2014-Oct-23 21:00N 67°18' E 007°24'0 0.0 200 / 25996.4 4.010.0 8.2
2014-Oct-23 18:10N 67°18' E 007°24'0 0.0 210 / 24995.8 4.5 9.7 7.8
2014-Oct-23 15:00N 67°18' E 007°24'0 0.0 200 / 24994.3 5.0 9.8 8.5
2014-Oct-23 12:00N 67°18' E 007°24'0 0.0 180 / 18993.7 5.5 9.1 9.1
2014-Oct-23 09:00N 67°18' E 007°24'0 0.0 170 / 34994.2 5.5 8.5 8.5
2014-Oct-23 06:00N 67°18' E 007°24'0 0.0 160 / 35996.3 4.5 7.9 6.2
2014-Oct-23 03:00N 67°18' E 007°24'0 0.0 140 / 23999.1 3.0 8.0 6.5
2014-Oct-23 00:00N 67°18' E 007°24'0 0.0 170 / 171002.6 3.0 7.7 5.8
2014-Oct-22 21:00N 67°18' E 007°24'0 0.0 150 / 171004.7 3.0 6.8 3.6
2014-Oct-22 18:00N 67°18' E 007°24'0 0.0 180 / 121005.4 4.0 7.0 1.3
2014-Oct-22 15:00N 67°18' E 007°24'0 0.0 260 / 251003.7 4.0 5.7 3.0
2014-Oct-22 12:00N 67°18' E 007°24'0 0.0 290 / 33996.9 5.5 7.0 6.4
2014-Oct-22 09:00N 67°18' E 007°24'0 0.0 160 / 32998.4 5.0 7.7 6.6
2014-Oct-22 06:00N 67°18' E 007°24'0 0.0 160 / 36998.8 5.5 7.2 5.3
2014-Oct-22 03:00N 67°18' E 007°24'0 0.0 150 / 35999.3 5.5 7.5 4.8
2014-Oct-22 00:00N 67°18' E 007°24'0 0.0 160 / 34998.9 5.5 7.9 3.9
2014-Oct-21 21:00N 67°18' E 007°24'0 0.0 150 / 31998.0 5.0 8.3 4.5
2014-Oct-21 18:00N 67°18' E 007°24'0 0.0 150 / 31997.2 5.0 8.4 4.3
2014-Oct-21 15:00N 67°18' E 007°24'0 0.0 150 / 26996.4 4.0 8.6 4.7
2014-Oct-21 12:00N 67°18' E 007°24'0 0.0 140 / 23996.5 3.5 8.5 5.8
2014-Oct-21 09:00N 67°18' E 007°24'0 0.0 150 / 22995.7 3.0 8.9 7.7
2014-Oct-21 06:00N 67°18' E 007°24'0 0.0 170 / 21994.7 2.5 9.6 7.7
2014-Oct-21 03:00N 67°18' E 007°24'0 0.0 190 / 18994.2 2.5 9.0 7.0
2014-Oct-21 00:00N 67°18' E 007°24'0 0.0 210 / 16993.8 2.5 9.5 7.3
2014-Oct-20 18:00N 67°18' E 007°24'0 0.0 150 / 19993.3 3.0 8.2 7.6
2014-Oct-20 12:00N 67°18' E 007°24'0 0.0 150 / 20993.3 2.5 8.8 5.6
2014-Oct-20 09:00N 67°18' E 007°24'   190 / 17993.1 2.5 9.1 7.0

Dump ship's entire track history